STARLINK-30216, 57451

Orbit data source: Space-Track

STARLINK-30216, 57451 is a payload satellite owned by SpaceX/Seattle (US) in LEO that was launched on Mon, 24 Jul 2023 UTC via an FALCON 9 launch vehicle from the Air Force Eastern Test Range (AFETR). Payload-class satellites include a variety of spacecraft equipped with specific instruments for various scientific and technological missions. These include communications satellites like Starlink; space stations such as the ISS; scientific satellites like the Hubble; Earth observation satellites from companies like Planet Labs, Umbra, and HawkEye 360; GPS; miniature CubeSats for education and research; and military/defense satellites.

Loading next visibility...
Identifier
57451, 2023-105X
Orbit
LEO
Country
Flag of USUS
Related business
Manufacturer
SpaceX/Seattle
Mission
Operational Commercial Communications
Bus & Motor
STARLINK V2M, Unknown motor
Mass
730 kg wet, ~700 kg dry
Launch date (UTC)
2023-07-24 (3 years ago)
Launch vehicle
FALCON 9
Launch site
Air Force Eastern Test Range (AFETR)
Object type
Payload
Rocket body
Debris
Shape & HBR
Box + 2 Pan, 17.7 m
Radar Cross Section
33.884 m², Large (>1 m²)

Expand to show TLE details & history
Last TLE update: 2 days ago

TLE from 2 days ago
0 STARLINK-30216
1 57451U 23105X   26171.32487484  .00000581  00000-0  30649-4 0  9990
2 57451  43.0043  39.7936 0002232 269.4838  90.5757 15.27580997161121
Epoch: 2026-06-20T07:47Z
TLE epoch observation values (Epoch: 2026-06-20T07:47:49.186Z)
Latitude
-0.00007°
Longitude
14.29746°
Altitude
482.838 km
Speed
7.626 km/s
True Right ascension
02h 39m 10s
True Declination
0° 00' 00"
Sunlit
Object was in daylight at epoch
Visualization orbit readout
Latitude
Unknown
Longitude
Unknown
Altitude
Unknown
Speed
Unknown
Apparent Right ascension
Unknown
Apparent Declination
Unknown
Sunlit
N/A
Visualization observer readout
Local Sidereal Time
21:25:31
Azimuth
Unknown
Elevation
Unknown
Doppler factor
Unknown
Orbital elements
Apogee altitude
486.522 km
Perigee altitude
483.459 km
Semi-major axis
6,863.128 km
Eccentricity
0.00022
Inclination
43.0043°
RAAN
39.7936°
Arg. of periapsis
269.4838°
True anomaly
90.60128°
Mean anomaly
90.5757°
Eccentric anomaly
90.58849°
Mean motion
3.81733 °/min
Orbital period
94.31 mins
BSTAR
0.000030649
Loading maneuver chart data...
Computing Atmospheric mass density...
Loading historical data...
Loading historical data...
Loading historical data...
Loading historical data...
Loading historical data...
Loading historical data...
Loading historical data...

Documentation

Showing up to 5 results
|